Kendal Mountain Festival 10K Trail 2018

#NameBibCatClub/TeamTime
10K
1Dan Nash369MCardiff AAC0:39:01Finish
2James Appleton590MKeswick AC0:39:37Finish
3Matthew Elkington155MAmbleside AC0:40:37Finish
4Tom Fellbaum169MPennine Fell Runners0:41:50Finish
5Jack Wright561MAmbleside AC0:42:03Finish
6Michael Ainsworth6MHelm Hill Runners0:42:06Finish
7Samuel Russell455MAlpKit 0:42:10Finish
8James McGurk346M0:42:59Finish
9Jack Scott467M0:43:22Finish
10Tom Hartley223MKendal AAC0:43:23Finish
11Oli Murphy588M0:43:27Finish
12Seb Sillito474MHelm Hill0:43:36Finish
13Kieran Hodgson242M40Helm Hill0:43:42Finish
14Paul Tierney510MAmbleside AC0:44:01Finish
15John Helme230M40Ambleside AC0:44:30Finish
16Ben Procter422MHelm Hill Runners0:44:37Finish
17Andy Thompson509MHELM HILL0:44:46Finish
18Matt Green207MSalomon0:44:54Finish
19James Warner Sith535M0:45:03Finish
20James Haworth226M40Keswick AC0:45:26Finish
21Adrian Bellwood43M0:45:29Finish
22Simeon Musgreave585MDiaz0:45:33Finish
23Chris Dunn601MTerrex0:45:35Finish
24James Chapman95M0:45:38Finish
25Michael Tosh518MAmbleside AC0:45:44Finish
26Paul Reilly438M40Helm hill0:46:00Finish
27Peter Rigby442MHelm Hill0:46:07Finish
28Brad Pontin412MBristol & West AC0:46:07Finish
29Mark Syvret584M40Jersey Tri Club0:46:07Finish
30Matthew Fellbaum168MEdi Uni Orienteering Club0:46:14Finish
31Tom Levitt307M0:46:20Finish
32Joe Todd513M40Kendal aac 0:46:30Finish
33Jonny Muir366MCarnethy Hill Racing Club0:46:32Finish
34David Goadby199MHelm Hill0:46:39Finish
35Jacob Dyer151M40Helm Hill0:46:43Finish
36Ellis Bland51M0:46:58Finish
37Bryan Potts418MElvet Striders0:47:19Finish
38Chris Lines308M40Sedgefield Harriers0:47:22Finish
39Martin Oldfield379M50Darwen Dashers0:47:31Finish
40Simon Whittaker546MHelm Hill0:47:33Finish
41Jim Ryder456M500:47:41Finish
42Andy Johnson272M0:47:45Finish
43Justin Tancrel572M40Helm Hill0:47:45Finish
44James Baron30M50Helm Hill0:48:00Finish
45Benjamin Hodgson241MKendal Tri Club0:48:00Finish
46Jack Simpson475M0:48:27Finish
47James MacKeddie323M0:48:29Finish
48Finlay Leather304MHelm0:48:41Finish
49Alex Kendall283MHowgill Harriers0:48:46Finish
50Mike Pauley405M500:48:47Finish
51Mike Berners-Lee591M50Helm Hill0:48:50Finish
52Craig Burrow75M40Helm Hill Runners0:48:54Finish
53Robert Moffat357MHowgill harriers0:48:57Finish
54Gareth White563M400:49:01Finish
55Martin Lane297M0:49:02Finish
56James Fairbank620M0:49:09Finish
57Andrew Hebson229MHelm Hill0:49:18Finish
58James Todhunter515MHelm Hill0:49:34Finish
59Matthew Howard257M0:49:35Finish
60Peter German190M0:49:35Finish
61Steve Parker400M400:49:42Finish
62Nicholas Barber26MTr@il P1mpzz0:49:43Finish
63David Cottingham110M0:49:45Finish
64Billy Procter424M60Helm Hill0:49:45Finish
65Jonny Marchant329M400:49:49Finish
66Ian Handscomb221MBarry0:49:53Finish
67Sam Garrett188M0:50:03Finish
68Kieran Allen10M0:50:09Finish
69John Douglas140M40Allithwaite Running Club0:50:18Finish
70Graham Britton62M600:50:33Finish
71Sean Robinson447M40Howgill harriers0:50:39Finish
72Matthew Blakeley48M40Roundhay Runners0:50:46Finish
73Will Nelson371MLancon0:50:54Finish
74Paul Turner525M40Helm Hill Runners0:50:59Finish
75Jamie Ramsay583M0:51:01Finish
76Paul Gregory210M40wesham road runner0:51:03Finish
77Kristofer Dandy124M0:51:11Finish
78Shaun Addison2M50Helm Hill Vet 500:51:17Finish
79Josh Renshaw439M0:51:20Finish
80Carl Crompton117M400:51:28Finish
81David Chandler94M0:51:31Finish
82Craig Gardner599M0:51:33Finish
83Olli Tikkanen511MLiverpool Harriers0:51:40Finish
84Gareth Bradbury53M400:51:53Finish
85Andrew King291M40Andrew King0:51:55Finish
86James Isherwood267M40Beeston AC0:52:20Finish
87Tom Holman247M400:52:33Finish
88Alastair Graves205M0:52:33Finish
89David Quigley566M50Fuse0:52:34Finish
90James Lockhart311MThames Valley Triathletes0:52:35Finish
91Alex Slater478M0:52:36Finish
92Tom Pybus427M0:52:41Finish
93Mark Hutchinson263M400:52:45Finish
94Philip Jones278M0:52:46Finish
95Graeme Schofield462M0:53:06Finish
96Kevin Robinson446M40Derwent AC0:53:12Finish
97John Roberts619M0:53:14Finish
98Chris Graham203M400:53:18Finish
99Stuart Holroyd251M0:53:21Finish
100Patrick Hickey234M0:53:30Finish
101Tom Lowman316M0:53:41Finish
102Anthony Palmer399M0:53:42Finish
103Sean Gibson598M0:53:44Finish
104Peter Cartlidge88M40Fuse0:53:54Finish
105Matthew Crane114M0:53:58Finish
106Ian Maudsley338M400:53:59Finish
107Joe Steele489M400:53:59Finish
108Stuart McGurk347M50Kendal AC0:54:02Finish
109Will Retchless587MBedale and Aiskew Runners0:54:05Finish
110Tim Rowe453M40FUSE0:54:06Finish
111Adam Dawson130M0:54:14Finish
112Kevin Perry615M500:54:15Finish
113Ed Poulter419M0:54:16Finish
114Phil Blakey49M60Pbfitcamp0:54:29Finish
115Brian Thompson507M60Helm Hill0:54:32Finish
116Matthew Murgatroyd368M0:54:35Finish
117David Appleyard11M50Helm Hill0:54:51Finish
118Mike Innerdale265M400:54:52Finish
119Michael Grice211MPez0:55:12Finish
120Arran Sayle460M40Lancon0:55:14Finish
121Oliver Blenkinsop564M0:55:16Finish
122Darren Coward112M0:55:26Finish
123Michael Long313M0:55:26Finish
124Daniel Thompson506M0:55:38Finish
125Matthew Slack476MSlackers0:55:40Finish
126Andrew Stokes491M60Dallam RC0:55:47Finish
127Paul Trott522M500:55:55Finish
128William Coupe111M50Helm Hill0:55:56Finish
129Andrew Douglas139M400:55:58Finish
130Simon Oxley393M500:56:07Finish
131Robert MacFarlane320M400:56:20Finish
132Alastair Humphreys262M600:56:26Finish
133Michael Love315M0:56:33Finish
134Joseph Hoile244MFuse0:56:48Finish
135Richard Sykes496M500:56:49Finish
136Lewis McIntyre348M50McIntyre 0:56:52Finish
137Kevin Fox185M40Hoad Hill Harriers0:56:57Finish
138Lewis Turner524M0:57:01Finish
139Rick Jones280M400:57:06Finish
140Glen Dalton123MInspiredbyPez0:57:09Finish
141Alastair MacDonald318MHoad Hill Harriers0:57:11Finish
142Adam Perry408MHelm Hill0:57:12Finish
143David Raynor434M50Red Rose Road Runners 0:57:16Finish
144Steve Broadfoot63M50Knowsley Harriers & AC0:57:17Finish
145Richard Hermitage231M600:57:18Finish
146Nick Cannon Jones85M0:57:20Finish
147Andrew Kyle295MBandanakid0:57:21Finish
148Mark Fairbank162M0:57:22Finish
149John Noblet376M400:57:25Finish
150Martin Pyrah429M40UTC0:57:29Finish
151Jasper Sanders457M400:57:35Finish
152Steve Elliot156M400:57:36Finish
153David Briggs60M400:57:40Finish
154Andy Hale217M40Red rose0:57:46Finish
155David Sexton469M400:57:47Finish
156Samuel Price420MFuse0:57:47Finish
157Steven Batty33M50Walney windcheetahs0:57:49Finish
158Jim Fisher174M50Howgill Harriers0:57:52Finish
159Jonny Grisedale214M40Helm Hill0:57:54Finish
160Richard Duncalf144M40Crystal0:57:55Finish
161Thomas Price421M0:58:03Finish
162James Crompton116MSuper Dissy Group0:58:03Finish
163Lawrence Ferguson170MThompo's Tempo Trailers0:58:07Finish
164Frederick Brock65MFreddie0:58:08Finish
165Matthew Cannon83MHelm Hill Runners0:58:11Finish
166Marcus McDonald342MMarcus0:58:18Finish
167James Carradice87M0:58:22Finish
168Matthew Hillen238M0:58:27Finish
169Mark Glaister198M50UKC/RFAX0:58:28Finish
170Scott Ben Brahim44M0:58:34Finish
171Paul Chapman96M400:58:41Finish
172Peter Blackburn45M400:58:43Finish
173Chris Hill237MTeam James0:58:45Finish
174James Brooker68MTeam James 0:58:45Finish
175Stefan Bradley54M400:58:48Finish
176Calum MacLean324M0:58:57Finish
177Josh Bradley596M0:58:57Finish
178Jeremy Barnes28M50Vegan runners0:59:06Finish
179Rob Fishwick175M400:59:07Finish
180Adam McGinley343MDH Runners/Deadfish0:59:09Finish
181Liam Derome133MRevenges 0:59:13Finish
182Colin Scotchford463M500:59:24Finish
183Jon Barton32M500:59:25Finish
184Kevin Duncan146M400:59:30Finish
185Mark Aldred614M0:59:42Finish
186Dave Horton255M500:59:51Finish
187Alex Jones279M0:59:51Finish
188David Butler77M500:59:52Finish
189Daniel Bailey21M0:59:53Finish
190Edward Ireland607M0:59:55Finish
191John Leech617M500:59:56Finish
192Neil Shaw470M400:59:59Finish
193Christopher Moss363M401:00:12Finish
194Matthew Young586M1:00:12Finish
195Ash Green206M401:00:19Finish
196Simon Smith482M1:00:20Finish
197Benjamin Dandy125M1:00:23Finish
198Richie Philip603M1:00:25Finish
199Mark Walker531M50Kendal AC1:00:31Finish
200Josh Wilde547MFuse1:00:43Finish
201Paul Dye149M50Paul Dye1:00:44Finish
202Marcio Tomaz Bonifacio516M1:00:46Finish
203Cliff Etherden158M701:00:48Finish
204Terry Wilkinson613M401:00:54Finish
205Tony Hodson243M50How gill Harriers1:00:56Finish
206Scott Postlethwaite415M501:01:01Finish
207Mark Bean36M40Valley striders1:01:02Finish
208Philip Lee305MPhilistine1:01:07Finish
209Mervyn Rice440M601:01:13Finish
210Ryan Beardsworth37M50Red Rose Runners1:01:18Finish
211Thomas Keegan281M50Howgill Harriers1:01:18Finish
212Gavin Ellis157M1:01:22Finish
213Stuart Bell41M601:01:25Finish
214Duncan Campbell82MTeam Shambles1:01:25Finish
215David Wilson553M50Bowland FR1:01:27Finish
216Rudolf MacIejkowicz321M601:01:30Finish
217Tim Marjot331M1:01:32Finish
218Rhys Evans575MSans Nino1:01:36Finish
219Richard Dodds137M401:01:40Finish
220Christopher Smith-Duque484M401:01:42Finish
221Rob Halliday578M1:01:42Finish
222Daniel Slome479M401:01:56Finish
223Chris Scales461M401:01:59Finish
224Andy Monk358M60FRA1:02:05Finish
225Ross Gourlay202M40Roundhay Runners1:02:06Finish
226Phil Davies128M1:02:06Finish
227Wilfred Bell42M601:02:09Finish
228Craig Munro616M1:02:10Finish
229Bruce McLoughlin350M501:02:12Finish
230Jonathan May340M501:02:25Finish
231Ally Cunningham121M501:02:28Finish
232Tomasz Woznikowski560MTomek 1:02:31Finish
233David Johnson273M501:02:35Finish
234Martin Wilson555M601:02:39Finish
235Russell Winch556MRunning Squirrels1:02:39Finish
236Nicholas Graham204M401:02:41Finish
237Mark Houghton256M401:02:51Finish
238Andrew Denton132M50Andrew Denton1:02:57Finish
239Richard Beaumont38M501:02:58Finish
240Quentin Merritt353M501:03:05Finish
241Ryan Purtill425M1:03:06Finish
242Jacob Turney527MShegs 1:03:07Finish
243David Barnsley570M1:03:07Finish
244Thomas Kirk292MKirk1:03:12Finish
245Matt Atkinson18M1:03:15Finish
246Andrew Harris606M1:03:15Finish
247Tony Watson538M40T1:03:16Finish
248Daniel Homer252MDave1:03:24Finish
249Brian Webster541M501:03:28Finish
250Eddy Flynn179M1:03:47Finish
251Jonathan Oliphant381MJonathan Oliphant1:03:48Finish
252Marcus Wild612M1:03:51Finish
253Chris Vincent574M501:03:55Finish
254Phil-simon Buendia73M1:04:02Finish
255David Smith483M1:04:21Finish
256Stuart Kenny285MStuart Kenny1:04:23Finish
257Simon Pagan396M401:04:28Finish
258Carlos Torres517M1:04:40Finish
259Paul Holmes250M401:05:02Finish
260Brendan Leonard306M1:05:15Finish
261Terry Parr402M601:05:16Finish
262Christopher Duncan145MPeculiar Velocities1:05:23Finish
263Mark Cottam109M1:05:24Finish
264John MacK322M401:05:26Finish
265Andy Dickson580M50Coniston1:05:38Finish
266Lawrence Cray115M1:06:08Finish
267Stephen Lockwood312M601:06:15Finish
268George Wilson554M501:06:29Finish
269David Southern Hall218MPbfitcamp1:06:31Finish
270Said Lechheb602M1:06:32Finish
271Andy Holme248M401:06:37Finish
272Elliot Standfield594M1:06:39Finish
273Richard Leafe303M501:06:44Finish
274Andy Brayshaw57M401:06:52Finish
275John Walter533M601:06:53Finish
276Andy Ginty196M501:06:55Finish
277Richard Cater91M401:07:03Finish
278Tim Field171M50Gosforth Social Running1:07:04Finish
279Ken McGrattan345M40Bentham Beagles1:07:21Finish
280Chris Taylor503M1:07:35Finish
281Mark Porter414M50Lancon1:07:37Finish
282Edward Taylor502M401:08:03Finish
283JP Medland576MSans Nino1:08:08Finish
284David Patrick404M50Beeston AC1:08:15Finish
285Kevin Gillon195M40Fuse1:08:19Finish
286Andrew Bucknell72M1:08:22Finish
287Matthew Bailey22M1:08:25Finish
288William Britton61M1:08:34Finish
289Mark Mulryan367M50Lancon1:08:42Finish
290Christopher Plumpton411M601:08:52Finish
291Samuel Baker24M1:08:55Finish
292Kilian Doyle142M401:08:58Finish
293Przemek Dziewiatkowski152MNine91:08:59Finish
294Tom Scott466MTeam TK1:09:03Finish
295Mark Burns592M501:09:08Finish
296John Parton403M40Columbia1:09:11Finish
297Justin Barker605M401:09:14Finish
298Paul Bacon19M1:09:20Finish
299Rob Bushby604M501:09:23Finish
300Rob Aindow3M401:09:24Finish
301Richard Oliver385M40CharlieMacdennis1:09:57Finish
302James Thompson508M401:10:09Finish
303Toby Rowe454M401:10:32Finish
304Matt Barclay27M1:10:49Finish
305Lee Shorrock472M401:10:51Finish
306Ed Key288M40Jogging Pals1:10:55Finish
307Jeremy Gauntlett-Gilbert189M401:10:59Finish
308Ben Jones277M1:11:05Finish
309Cyriaque Lajoinie296M401:11:05Finish
310Cemlyn Griffith212M1:11:26Finish
311Matthew Ray618M401:11:26Finish
312Dean Pallister397M40Allithwaite Running Club 1:11:43Finish
313Darren Street492M501:11:44Finish
314Matt Savidge459M401:11:46Finish
315Joe Atherton14MLFC1:11:47Finish
316Richard Lote314M501:11:57Finish
317David Mainwaring328M501:12:00Finish
318Malcolm Nicholas374M601:12:09Finish
319Adrian Dobson135M50Team Dobson1:12:43Finish
320Mark Nichols375M60Watford Joggers1:12:44Finish
321Jason Watters539M40Plodding donkeys1:13:11Finish
322Duncan Lawson301M1:13:20Finish
323Paul Wolf559M501:13:41Finish
324Jim Foster182M40Trailblazers1:13:41Finish
325Tim Marsh332M401:13:50Finish
326Joaquin Merzo354M601:13:58Finish
327Kevin Cornwell106M1:14:53Finish
328Josh Macaulum609M1:14:55Finish
329Austin Trelfa521M601:15:02Finish
330Phil Corris107M60Lancon1:15:04Finish
331Simon Matthews337M1:15:50Finish
332Derek Paling573M601:16:06Finish
333Gary Hollis246M50G&C1:16:16Finish
334Mark Padley395M40Lincsquad1:16:23Finish
335Anthony Orr388M501:16:43Finish
336James Heslop232M1:17:02Finish
337Dan Foster183M40Fylde coast Runners1:17:22Finish
338Dave Waywell540M70Wesham Road Runners1:18:21Finish
339David Higson236M501:18:34Finish
340Will Friend186M1:20:03Finish
341David Wilkinson548M501:20:08Finish
342Zachary Vernon530M1:22:46Finish
343Kevin Hullah261M50Team Hullah1:23:52Finish
344Laurence Edge154M60Rons Runners1:27:17Finish
345Daniel Albert7M601:29:02Finish
346Mick Jennings271M601:30:33Finish
347Stephen Lockett310M40Lockett Express1:30:49Finish
348Christian Ainsley5M401:33:01Finish
349Ian Goodall201M1:33:02Finish
350David Watson537M501:35:23Finish
351Philip Butterworth78M501:36:07Finish
352Paul McMonagle351M1:45:33Finish
353James Quigley565MFuse1:49:45Finish